Regional Weather Roundup
Issued by NWS

Home | Current Version | Previous Version | Graphics & Text | Print | Product List | Glossary On
Versions: 1 2 3 4 5 6 7 8 9 10 11 12 13 14 15 16 17 18 19 20 21 22 23 24 25 26 27 28 29 30 31 32 33 34 35 36 37 38 39 40 41 42 43 44 45 46 47 48 49 50
634
ASUS43 KOAX 271010
RWRNE

WEATHER ROUNDUP FOR NEBRASKA
NATIONAL WEATHER SERVICE OMAHA NE
500 AM CDT THU JUL 27 2017

NOTES: SATELLITE DATA IS BEING USED TO AUGMENT CLOUD COVER ABOVE
       12000 FEET.
       "FAIR" INDICATES FEW OR NO CLOUDS BELOW 12,000 FEET WITH NO
       SIGNIFICANT WEATHER AND/OR OBSTRUCTIONS TO VISIBILITY.


NEZ001>004-019>022-054>056-271100-
NEBRASKA PANHANDLE

CITY           SKY/WX    TMP DP  RH WIND       PRES   REMARKS
SCOTTSBLUFF    CLOUDY    69  64  84 SE6       30.19S
ALLIANCE       CLOUDY    68  65  90 SE14      30.19F
CHADRON        CLOUDY    72  62  71 SE8       30.15F
GORDON         CLOUDY    67  60  78 SE6       30.18F
KIMBALL        CLEAR     62  62 100 SE6       30.23F FOG
SIDNEY         CLOUDY    61  58  90 S5        30.22F
$$

NEZ057>060-069>072-079>082-271100-
SOUTHWEST NEBRASKA

CITY           SKY/WX    TMP DP  RH WIND       PRES   REMARKS
NORTH PLATTE   CLOUDY    69  62  78 NE8       30.16R
IMPERIAL       CLOUDY    68  64  87 NE6       30.16F
LEXINGTON      CLOUDY    69  64  84 NE8       30.13R
MCCOOK         CLOUDY    71  69  93 N7        30.12S
OGALLALA       CLOUDY    69  67  93 CALM      30.18S
$$

NEZ005>010-023>029-035>040-094-271100-
NORTH CENTRAL NEBRASKA

CITY           SKY/WX    TMP DP  RH WIND       PRES   REMARKS
VALENTINE      CLEAR     60  55  83 W5        30.16F
AINSWORTH      CLEAR     60  59  97 W3        30.16S
BROKEN BOW     PTCLDY    64  60  87 N6        30.14S
O`NEILL        CLEAR     60  60  99 CALM      30.14R
ORD            CLEAR     61  58  90 N3        30.12R
THEDFORD       PTCLDY    63  61  92 CALM      30.19S
$$

NEZ041-046>049-061>064-073>077-083>087-271100-
SOUTH CENTRAL NEBRASKA

CITY           SKY/WX    TMP DP  RH WIND       PRES   REMARKS
GRAND ISLAND   CLEAR     66  65  96 NE7       30.09R
AURORA         CLOUDY    68  67  97 N8        30.08R
HASTINGS       CLOUDY    69  66  90 NE10      30.09R
HEBRON         CLOUDY    73  71  94 NE6       30.04R FOG
HOLDREGE       CLOUDY    69  67  93 NE8       30.10R
KEARNEY        CLOUDY    66  64  94 NE10      30.11R
YORK           PTCLDY    68  66  94 N8        30.07R
$$

NEZ011>018-030>034-042>045-271100-
NORTHEAST NEBRASKA

CITY           SKY/WX    TMP DP  RH WIND       PRES   REMARKS
NORFOLK        CLEAR     63  60  90 NW5       30.08F
ALBION         CLEAR     64  62  91 N5        30.11R
BLAIR          RAIN      68  66  92 N8        30.03S
COLUMBUS       CLEAR     65  63  93 N7        30.08R
FREMONT        CLEAR     67  65  91 N3        30.05R
TEKAMAH        CLEAR     66  63  90 N6        30.04R
WAYNE          CLEAR     62  61  99 CALM      30.08S
$$

NEZ050>053-065>068-078-088>093-271100-
SOUTHEAST NEBRASKA

CITY           SKY/WX    TMP DP  RH WIND       PRES   REMARKS
LINCOLN        CLEAR     72  69  90 N10       30.03S
OMAHA EPPLEY   CLEAR     69  66  90 N7        30.02R
BEATRICE       CLOUDY    72  71  98 NE3       30.02R FOG
FALLS CITY     PTCLDY    73  71  93 N7        29.97R
NEBRASKA CITY  CLEAR     71  71 100 N7        30.01R FOG
PLATTSMOUTH    CLEAR     71  70  97 N5        30.02R FOG
$$

NEZ044-045-051>053-067-271100-
OMAHA AREA

CITY           SKY/WX    TMP DP  RH WIND       PRES   REMARKS
OMAHA EPPLEY   CLEAR     69  66  90 N7        30.02R
BLAIR          RAIN      68  66  92 N8        30.03S
FREMONT        CLEAR     67  65  91 N3        30.05R
MILLARD        CLEAR     73  69  90 CALM      30.02R
OFFUTT AFB     CLEAR     71  68  89 N7        30.01R
PLATTSMOUTH    CLEAR     71  70  97 N5        30.02R FOG
WAHOO          FAIR      68  66  94 N7        30.04R
$$




USA.gov is the U.S. government's official web portal to all federal, state and local government web resources and services.